Regional Weather Roundup
Issued by NWS Charleston, WV

Home | Current Version | Previous Version | Text Only | Print | Product List | Glossary Off
Versions: 1 2 3 4 5 6 7 8 9 10 11 12 13 14 15 16 17 18 19 20 21 22 23 24 25 26 27 28 29 30 31 32 33 34 35 36 37 38 39 40 41 42 43 44 45 46 47 48 49

000
ASUS41 KRLX 040010
RWRRLX
West Virginia Regional Weather Roundup
National Weather Service Charleston WV
800 PM EDT SUN MAY 03 2015

Note: "fair" indicates few or no clouds below 12,000 feet with no
significant weather and/or obstructions to visibility.

WVZ003-040100-
Northern Panhandle of West Virginia

CITY           SKY/WX    TMP DP  RH WIND       PRES   REMARKS
WHEELING       CLEAR     70  42  36 S6        30.10R
$$

WVZ009-040100-
Northwest West Virginia

CITY           SKY/WX    TMP DP  RH WIND       PRES   REMARKS
PARKERSBURG    CLEAR     74  37  26 W3        30.12S
$$

WVZ006-040100-
Western West Virginia

CITY           SKY/WX    TMP DP  RH WIND       PRES   REMARKS
HUNTINGTON     CLEAR     74  39  28 S3        30.09S
$$

WVZ015-040100-
West Central West Virginia

CITY           SKY/WX    TMP DP  RH WIND       PRES   REMARKS
CHARLESTON     PTCLDY    74  34  23 SW5       30.10S
$$

WVZ022-031-040100-
North Central West Virginia

CITY           SKY/WX    TMP DP  RH WIND       PRES   REMARKS
CLARKSBURG     PTCLDY    71  35  26 SW5       30.11S
MORGANTOWN     CLEAR     74  34  23 SW3       30.12S
$$

WVZ025-035-042-045-040100-
Southern West Virginia

CITY           SKY/WX    TMP DP  RH WIND       PRES   REMARKS
BECKLEY        MOCLDY    68  32  26 CALM      30.17R
LOGAN            N/A     72  34  25 CALM      30.10S
BLUEFIELD      PTCLDY    70  32  24 W3        30.18R
LEWISBURG      PTCLDY    70  32  24 CALM      30.17S
$$

WVZ047-040100-
Northern Mountains of West Virginia

CITY           SKY/WX    TMP DP  RH WIND       PRES   REMARKS
ELKINS         PTCLDY    66  39  37 N3        30.15R
$$

WVZ052-040100-
Eastern Panhandle of West Virginia

CITY           SKY/WX    TMP DP  RH WIND       PRES   REMARKS
MARTINSBURG    CLEAR     70  43  37 S6        30.10R
PETERSBURG     PTCLDY    70  51  50 CALM      30.12R
$$



USA.gov is the U.S. government's official web portal to all federal, state and local government web resources and services.